2024/03/21 00:00:00, 7.2,-2.0
2024/03/21 00:10:00, 7.2,-2.0
2024/03/21 00:20:00, 7.2,-1.7
2024/03/21 00:30:00, 7.3,-1.7
2024/03/21 00:40:00, 7.2,-2.0
2024/03/21 00:50:00, 7.2,-1.7
2024/03/21 01:00:00, 7.1,-1.2
2024/03/21 01:10:00, 7.1,-1.5
2024/03/21 01:20:00, 7.4,-1.5
2024/03/21 01:30:00, 7.5,-1.1
2024/03/21 01:40:00, 7.4,-1.6
2024/03/21 01:50:00, 7.4,-2.0
2024/03/21 02:00:00, 7.4,-2.4
2024/03/21 02:10:00, 7.3,-2.5
2024/03/21 02:20:00, 7.3,-2.4
2024/03/21 02:30:00, 7.3,-2.7
2024/03/21 02:40:00, 7.2,-2.8
2024/03/21 02:50:00, 7.2,-2.7
2024/03/21 03:00:00, 7.2,-3.1
2024/03/21 03:10:00, 7.1,-3.1
2024/03/21 03:20:00, 7.0,-3.5
2024/03/21 03:30:00, 6.9,-3.3
2024/03/21 03:40:00, 6.8,-3.3
2024/03/21 03:50:00, 6.7,-3.5
2024/03/21 04:00:00, 6.7,-3.6
2024/03/21 04:10:00, 6.7,-3.4
2024/03/21 04:20:00, 6.7,-3.1
2024/03/21 04:30:00, 6.7,-3.1
2024/03/21 04:40:00, 6.7,-3.2
2024/03/21 04:50:00, 6.6,-3.2
2024/03/21 05:00:00, 6.5,-3.0
2024/03/21 05:10:00, 6.5,-2.9
2024/03/21 05:20:00, 6.4,-3.0
2024/03/21 05:30:00, 6.4,-2.8
2024/03/21 05:40:00, 6.4,-2.7
2024/03/21 05:50:00, 6.3,-2.7
2024/03/21 06:00:00, 6.3,-2.9
2024/03/21 06:10:00, 6.3,-2.9
2024/03/21 06:20:00, 6.2,-2.8
2024/03/21 06:30:00, 6.3,-2.6
2024/03/21 06:40:00, 6.3,-2.6
2024/03/21 06:50:00, 6.3,-2.2
2024/03/21 07:00:00, 6.3,-2.2
2024/03/21 07:10:00, 6.3,-1.9
2024/03/21 07:20:00, 6.3,-1.3
2024/03/21 07:30:00, 6.1,-1.2
2024/03/21 07:40:00, 6.1,-1.0
2024/03/21 07:50:00, 6.0,-0.5
2024/03/21 08:00:00, 6.0, 0.0
2024/03/21 08:10:00, 6.0, 0.5
2024/03/21 08:20:00, 6.0, 0.4
2024/03/21 08:30:00, 5.9, 0.7
2024/03/21 08:40:00, 6.0, 1.1
2024/03/21 08:50:00, 6.0, 2.1
2024/03/21 09:00:00, 6.0, 1.3
2024/03/21 09:10:00, 6.0, 1.7
2024/03/21 09:20:00, 6.0, 2.3
2024/03/21 09:30:00, 5.9, 2.8
2024/03/21 09:40:00, 5.9, 3.0
2024/03/21 09:50:00, 5.9, 3.5
2024/03/21 10:00:00, 5.9, 3.5
2024/03/21 10:10:00, 5.7, 4.0
2024/03/21 10:20:00, 5.5, 2.9
2024/03/21 10:30:00, 5.3, 3.2
2024/03/21 10:40:00, 5.3, 4.6
2024/03/21 10:50:00, 5.0, 5.6
2024/03/21 11:00:00, 3.4, 3.5
2024/03/21 11:10:00, 1.9, 3.2
2024/03/21 11:20:00, 1.9, 3.6
2024/03/21 11:30:00, 2.0, 4.1
2024/03/21 11:40:00, 1.9, 3.0
2024/03/21 11:50:00, 1.7, 2.8
2024/03/21 12:00:00, 2.0, 3.5
2024/03/21 12:10:00, 2.1, 4.1
2024/03/21 12:20:00, 1.7, 4.2
2024/03/21 12:30:00, 2.0, 4.4
2024/03/21 12:40:00, 1.7, 4.3
2024/03/21 12:50:00, 1.7, 3.3
2024/03/21 13:00:00, 1.8, 4.1
2024/03/21 13:10:00, 1.7, 3.9
2024/03/21 13:20:00, 1.6, 3.4
2024/03/21 13:30:00, 1.4, 2.7
2024/03/21 13:40:00, 1.3, 2.0
2024/03/21 13:50:00, 1.6, 1.5
2024/03/21 14:00:00, 1.6, 1.7
2024/03/21 14:10:00, 1.7, 2.0
2024/03/21 14:20:00, 1.8, 2.3
2024/03/21 14:30:00, 1.9, 2.4
2024/03/21 14:40:00, 1.6, 2.4
2024/03/21 14:50:00, 1.5, 2.2
2024/03/21 15:00:00, 1.5, 2.2
2024/03/21 15:10:00, 1.5, 3.7
2024/03/21 15:20:00, 1.5, 3.9
2024/03/21 15:30:00, 1.2, 2.2
2024/03/21 15:40:00, 1.1, 1.5
2024/03/21 15:50:00, 1.1, 0.8
2024/03/21 16:00:00, 1.5, 0.5
2024/03/21 16:10:00, 2.4, 0.2
2024/03/21 16:20:00, 2.8, 0.3
2024/03/21 16:30:00, 3.0, 0.3
2024/03/21 16:40:00, 3.3, 0.4
2024/03/21 16:50:00, 3.4, 0.5
2024/03/21 17:00:00, 3.2, 0.5
2024/03/21 17:10:00, 3.1, 0.3
2024/03/21 17:20:00, 3.1, 0.1
2024/03/21 17:30:00, 3.0, 0.7
2024/03/21 17:40:00, 3.0, 0.6
2024/03/21 17:50:00, 3.0, 0.4
2024/03/21 18:00:00, 3.0, 0.3
2024/03/21 18:10:00, 3.0, 0.0
2024/03/21 18:20:00, 3.0,-0.2
2024/03/21 18:30:00, 2.9,-0.2
2024/03/21 18:40:00, 2.9,-0.3
2024/03/21 18:50:00, 2.9,-0.4
2024/03/21 19:00:00, 2.9,-0.5
2024/03/21 19:10:00, 2.9,-0.4
2024/03/21 19:20:00, 2.8,-0.7
2024/03/21 19:30:00, 2.8,-0.2
2024/03/21 19:40:00, 2.8,-0.4
2024/03/21 19:50:00, 2.8,-0.3
2024/03/21 20:00:00, 2.8,-0.3
2024/03/21 20:10:00, 2.8,-0.4
2024/03/21 20:20:00, 2.9,-0.3
2024/03/21 20:30:00, 2.8,-0.2
2024/03/21 20:40:00, 2.9,-0.2
2024/03/21 20:50:00, 3.0,-0.7
2024/03/21 21:00:00, 3.1,-0.2
2024/03/21 21:10:00, 3.7,-0.3
2024/03/21 21:20:00, 4.2,-0.6
2024/03/21 21:30:00, 4.4,-0.4
2024/03/21 21:40:00, 4.5,-0.3
2024/03/21 21:50:00, 4.6,-0.3
2024/03/21 22:00:00, 4.6,-0.1
2024/03/21 22:10:00, 4.6,-0.2
2024/03/21 22:20:00, 4.6,-0.4
2024/03/21 22:30:00, 4.5,-0.1
2024/03/21 22:40:00, 4.5,-0.4
2024/03/21 22:50:00, 4.5,-0.3
2024/03/21 23:00:00, 4.5,-0.4
2024/03/21 23:10:00, 4.5,-0.2
2024/03/21 23:20:00, 4.5,-0.6
2024/03/21 23:30:00, 4.4,-0.5
2024/03/21 23:40:00, 4.4,-0.9
2024/03/21 23:50:00, 4.4,-0.8
